User: anonymous   Login
Location: Caribou
(46.8667°N, 68.0167°W)
Time: 04:39:57
(UTC-04:00)
Language:

SL-08 RB Rocket - Orbit

View from above orbital plane
View from above orbital plane
View from above satellite
View from above satellite

Ground track
Ground track

The orbit data is extracted from the following two-line orbital elements,

1 26387U 00033D   16176.78275105  .00000096  00000-0  25158-4 0  9998
2 26387  98.0173 243.2323 0027281  35.1478  75.6106 14.68162625855434
Epoch (UTC): 24 June 2016 18:47:09
Eccentricity: 0.0027281
inclination: 98.0173°
perigee height: 648 km
apogee height: 686 km
right ascension of ascending node: 243.2323°
argument of perigee: 35.1478°
revolutions per day: 14.68162625
mean anomaly at epoch: 75.6106°
orbit number at epoch: 85543

The dashed part of the orbit path shows where the satellite is in the earth's shadow,  

DLR